Location: Mount Airy
(36.4990°N, 80.6080°W)
Time: 01:22:52
(UTC-04:00)

Tiangong 2 - Visible Passes

Search period start: 22 June 2018 00:00
Search period end: 02 July 2018 00:00
Orbit: 291 x 296 km, 42.8° (Epoch: 21 June)

Date Brightness Start Highest point End Pass type
(mag) Time Alt. Az. Time Alt. Az. Time Alt. Az.
25 Jun 3.0 04:40:15 13° SSE 04:40:38 13° SE 04:41:59 10° ESE visible
26 Jun 1.8 04:45:41 25° S 04:46:17 28° SSE 04:48:33 10° E visible
27 Jun 0.5 04:51:00 33° SW 04:51:57 68° SSE 04:54:29 10° ENE visible
28 Jun 1.0 04:56:12 22° W 04:57:37 54° NNW 05:00:08 10° ENE visible
29 Jun 2.0 05:01:18 13° WNW 05:03:17 31° NNW 05:05:37 10° NE visible
30 Jun 3.6 03:36:00 15° ENE 03:36:00 15° ENE 03:36:35 10° ENE visible
30 Jun 2.7 05:06:48 10° WNW 05:08:55 23° N 05:11:02 10° NE visible
01 Jul 3.3 03:40:56 21° NE 03:40:56 21° NE 03:41:58 10° NE visible
01 Jul 3.1 05:12:33 10° NW 05:14:31 19° N 05:16:28 10° NE visible
